Location: Alamogordo
(32.8990°N, 105.9600°W)
Time: 04:13:22
(UTC-06:00)

ISS - Visible Passes

Search period start: 11 June 2026 00:00
Search period end: 21 June 2026 00:00
Orbit: 415 x 423 km, 51.6° (Epoch: 10 June)

Date Brightness Start Highest point End Pass type
(mag) Time Alt. Az. Time Alt. Az. Time Alt. Az.
15 Jun -1.1 04:52:07 10° SSE 04:53:40 13° SE 04:55:13 10° E visible
17 Jun -3.0 04:52:25 16° SSW 04:54:52 45° SE 04:58:06 10° ENE visible
18 Jun -2.1 04:06:46 22° SE 04:07:17 23° SE 04:10:03 10° ENE visible
19 Jun -0.8 03:21:02 11° ESE 03:21:02 11° ESE 03:21:17 10° E visible
19 Jun -3.1 04:53:59 18° WSW 04:56:14 45° NW 04:59:29 10° NE visible
20 Jun -3.9 04:08:10 70° SW 04:08:31 89° NW 04:11:54 10° NE visible
